| time (UTC) | temp C | wind direction | speed KPH | gust KPH | rain 1hr cm | rain 24hr cm | rain mn cm | humidity % | barometer mb |
| 20260502231616 | 16 | 296 | 4.8 | 4.8 | 0.00 | 0.00 | 0.00 | 50 | 1026.0 |
| 20260502230602 | 16 | 296 | 4.8 | 4.8 | 0.00 | 0.00 | 0.00 | 50 | 1027.7 |
| 20260502225608 | 16 | 296 | 4.8 | 4.8 | 0.00 | 0.00 | 0.00 | 50 | 1027.7 |
| 20260502224535 | 16 | 296 | 4.8 | 4.8 | 0.00 | 0.00 | 0.00 | 50 | 1026.7 |
| 20260502223521 | 16 | 296 | 4.8 | 4.8 | 0.00 | 0.00 | 0.00 | 49 | 1026.7 |
| 20260502222607 | 16 | 296 | 4.8 | 4.8 | 0.00 | 0.00 | 0.00 | 48 | 1026.7 |
| 20260502221553 | 16 | 296 | 4.8 | 4.8 | 0.00 | 0.00 | 0.00 | 48 | 1025.7 |
| 20260502220540 | 17 | 296 | 4.8 | 4.8 | 0.00 | 0.00 | 0.00 | 46 | 1027.7 |
| 20260502215527 | 17 | 296 | 4.8 | 4.8 | 0.00 | 0.00 | 0.00 | 46 | 1027.7 |
| 20260502214613 | 17 | 296 | 4.8 | 4.8 | 0.00 | 0.00 | 0.00 | 45 | 1026.7 |
| 20260502213558 | 17 | 296 | 4.8 | 4.8 | 0.00 | 0.00 | 0.00 | 44 | 1025.7 |
| 20260502212544 | 17 | 296 | 4.8 | 4.8 | 0.00 | 0.00 | 0.00 | 43 | 1025.7 |
| 20260502211530 | 17 | 296 | 4.8 | 4.8 | 0.00 | 0.00 | 0.00 | 40 | 1027.7 |
| 20260502210637 | 18 | 296 | 4.8 | 4.8 | 0.00 | 0.00 | 0.00 | 39 | 1027.7 |
| 20260502205623 | 15 | 204 | 6.4 | 6.4 | 0.00 | 0.00 | 0.00 | 46 | 1026.7 |
| 20260502204548 | 16 | 204 | 6.4 | 6.4 | 0.00 | 0.00 | 0.00 | 51 | 1026.7 |
| 20260502203535 | 16 | 204 | 6.4 | 6.4 | 0.00 | 0.00 | 0.00 | 59 | 1026.7 |
| 20260502202521 | 16 | 204 | 6.4 | 6.4 | 0.00 | 0.00 | 0.00 | 54 | 1028.7 |
| 20260502201608 | 16 | 204 | 6.4 | 6.4 | 0.00 | 0.00 | 0.00 | 54 | 1028.7 |
| 20260502200554 | 16 | 204 | 6.4 | 6.4 | 0.00 | 0.00 | 0.00 | 53 | 1027.7 |
| 20260502195540 | 17 | 204 | 6.4 | 6.4 | 0.00 | 0.00 | 0.00 | 52 | 1026.7 |
| 20260502194526 | 17 | 204 | 6.4 | 6.4 | 0.00 | 0.00 | 0.00 | 51 | 1026.7 |
| 20260502193614 | 18 | 202 | 8.0 | 8.0 | 0.00 | 0.00 | 0.00 | 47 | 1027.7 |
| 20260502192559 | 18 | 204 | 6.4 | 6.4 | 0.00 | 0.00 | 0.00 | 47 | 1028.7 |
| 20260502191545 | 18 | 202 | 8.0 | 8.0 | 0.00 | 0.00 | 0.00 | 47 | 1026.7 |
| 20260502190532 | 18 | 204 | 6.4 | 6.4 | 0.00 | 0.00 | 0.00 | 47 | 1026.7 |
| 20260502185518 | 19 | 202 | 8.0 | 8.0 | 0.00 | 0.00 | 0.00 | 47 | 1026.7 |
| 20260502184605 | 20 | 204 | 6.4 | 6.4 | 0.00 | 0.00 | 0.00 | 45 | 1026.7 |
| 20260502183551 | 20 | 202 | 8.0 | 8.0 | 0.00 | 0.00 | 0.00 | 44 | 1025.8 |
| 20260502182538 | 20 | 204 | 6.4 | 8.0 | 0.00 | 0.00 | 0.00 | 43 | 1024.8 |
| 20260502181524 | 21 | 202 | 8.0 | 8.0 | 0.00 | 0.00 | 0.00 | 43 | 1025.5 |
| 20260502180611 | 21 | 202 | 8.0 | 8.0 | 0.00 | 0.00 | 0.00 | 41 | 1025.7 |
| 20260502163610 | 23 | 201 | 9.7 | 9.7 | 0.00 | 0.00 | 0.00 | 37 | 1025.7 |
| 20260502162556 | 23 | 201 | 9.7 | 9.7 | 0.00 | 0.00 | 0.00 | 37 | 1025.7 |
| 20260502161542 | 24 | 201 | 9.7 | 9.7 | 0.00 | 0.00 | 0.00 | 36 | 1026.0 |
| 20260502160529 | 24 | 201 | 9.7 | 9.7 | 0.00 | 0.00 | 0.00 | 37 | 1026.7 |
| 20260502151541 | 25 | 201 | 9.7 | 9.7 | 0.00 | 0.00 | 0.00 | 35 | 1025.7 |
| 20260502150606 | 25 | 201 | 9.7 | 11.3 | 0.00 | 0.00 | 0.00 | 35 | 1026.7 |
| 20260502130542 | 25 | 201 | 9.7 | 9.7 | 0.00 | 0.00 | 0.00 | 35 | 1027.7 |
| 20260502123542 | 25 | 201 | 9.7 | 11.3 | 0.00 | 0.00 | 0.00 | 34 | 1027.7 |
| 20260502122549 | 25 | 201 | 9.7 | 9.7 | 0.00 | 0.00 | 0.00 | 34 | 1029.7 |
| 20260502121617 | 25 | 198 | 8.0 | 17.7 | 0.00 | 0.00 | 0.00 | 34 | 1029.7 |
| 20260502120604 | 25 | 196 | 8.0 | 11.3 | 0.00 | 0.00 | 0.00 | 34 | 1028.7 |
| 20260502115550 | 25 | 198 | 8.0 | 11.3 | 0.00 | 0.00 | 0.00 | 33 | 1028.7 |
| 20260502114536 | 25 | 196 | 8.0 | 8.0 | 0.00 | 0.00 | 0.00 | 31 | 1028.7 |
| 20260502113523 | 25 | 198 | 8.0 | 14.5 | 0.00 | 0.00 | 0.00 | 35 | 1029.7 |
| 20260502112611 | 25 | 198 | 8.0 | 12.9 | 0.00 | 0.00 | 0.00 | 34 | 1028.7 |
| 20260502111557 | 24 | 198 | 8.0 | 9.7 | 0.00 | 0.00 | 0.00 | 34 | 1028.7 |
| 20260502110603 | 24 | 198 | 8.0 | 9.7 | 0.00 | 0.00 | 0.00 | 35 | 1028.7 |
| 20260502105529 | 24 | 198 | 8.0 | 11.3 | 0.00 | 0.00 | 0.00 | 35 | 1029.5 |
| 20260502104636 | 24 | 198 | 8.0 | 8.0 | 0.00 | 0.00 | 0.00 | 34 | 1029.7 |
| 20260502103603 | 24 | 198 | 8.0 | 9.7 | 0.00 | 0.00 | 0.00 | 37 | 1030.3 |
| 20260502102549 | 23 | 198 | 8.0 | 11.3 | 0.00 | 0.00 | 0.00 | 35 | 1029.3 |
| 20260502100522 | 23 | 189 | 4.8 | 8.0 | 0.00 | 0.00 | 0.00 | 37 | 1029.7 |
| 20260502090601 | 22 | 166 | 1.6 | 3.2 | 0.00 | 0.00 | 0.00 | 41 | 1030.7 |
| 20260502071533 | 16 | 166 | 1.6 | 1.6 | 0.00 | 0.00 | 0.00 | 52 | 1030.7 |
| 20260502070540 | 15 | 166 | 1.6 | 3.2 | 0.00 | 0.00 | 0.00 | 56 | 1031.7 |
| 20260502065607 | 15 | 166 | 1.6 | 3.2 | 0.00 | 0.00 | 0.00 | 57 | 1031.7 |
| 20260502064553 | 14 | 166 | 1.6 | 3.2 | 0.00 | 0.00 | 0.00 | 61 | 1031.7 |
| 20260502063600 | 13 | 346 | 1.6 | 3.2 | 0.00 | 0.00 | 0.00 | 63 | 1030.7 |
| 20260502062527 | 13 | 346 | 1.6 | 3.2 | 0.00 | 0.00 | 0.00 | 64 | 1032.7 |
| 20260502061613 | 13 | 346 | 1.6 | 3.2 | 0.00 | 0.00 | 0.00 | 58 | 1032.7 |
| 20260502060620 | 12 | 346 | 1.6 | 1.6 | 0.00 | 0.00 | 0.00 | 57 | 1032.7 |
| 20260502055547 | 12 | 346 | 1.6 | 1.6 | 0.00 | 0.00 | 0.00 | 63 | 1031.7 |
| 20260502054533 | 11 | 346 | 1.6 | 1.6 | 0.00 | 0.00 | 0.00 | 62 | 1031.7 |
| 20260502053541 | 10 | 347 | 4.8 | 4.8 | 0.00 | 0.00 | 0.00 | 57 | 1030.7 |
| 20260502052607 | 9 | 347 | 4.8 | 4.8 | 0.00 | 0.00 | 0.00 | 57 | 1032.7 |
| 20260502051634 | 8 | 347 | 4.8 | 4.8 | 0.00 | 0.00 | 0.00 | 57 | 1032.7 |
| 20260502050541 | 7 | 358 | 4.8 | 4.8 | 0.00 | 0.00 | 0.00 | 57 | 1031.7 |
| 20260502045527 | 10 | 358 | 4.8 | 4.8 | 0.00 | 0.00 | 0.00 | 57 | 1031.7 |
| 20260502044636 | 10 | 360 | 4.8 | 4.8 | 0.00 | 0.00 | 0.00 | 57 | 1031.7 |
| 20260502043602 | 10 | 358 | 4.8 | 4.8 | 0.00 | 0.00 | 0.00 | 57 | 1030.7 |
| 20260502042549 | 10 | 360 | 4.8 | 4.8 | 0.00 | 0.00 | 0.00 | 57 | 1030.7 |
| 20260502041535 | 11 | 358 | 4.8 | 4.8 | 0.00 | 0.00 | 0.00 | 57 | 1031.7 |
| 20260502040542 | 10 | 360 | 4.8 | 4.8 | 0.00 | 0.00 | 0.00 | 57 | 1031.7 |
| 20260502035609 | 8 | 10 | 4.8 | 4.8 | 0.00 | 0.00 | 0.00 | 57 | 1031.7 |
| 20260502034556 | 10 | 360 | 4.8 | 4.8 | 0.00 | 0.00 | 0.00 | 57 | 1031.7 |
| 20260502033623 | 9 | 10 | 4.8 | 4.8 | 0.00 | 0.00 | 0.00 | 57 | 1031.7 |
| 20260502032549 | 7 | 12 | 4.8 | 4.8 | 0.00 | 0.00 | 0.00 | 56 | 1030.9 |
| 20260502031617 | 8 | 12 | 4.8 | 4.8 | 0.00 | 0.00 | 0.00 | 56 | 1030.7 |
| 20260502030624 | 10 | 12 | 4.8 | 4.8 | 0.00 | 0.00 | 0.00 | 55 | 1031.4 |
| 20260502025630 | 8 | 11 | 4.8 | 4.8 | 0.00 | 0.00 | 0.00 | 54 | 1031.7 |
| 20260502024536 | 10 | 12 | 4.8 | 4.8 | 0.00 | 0.00 | 0.00 | 55 | 1031.7 |
| 20260502023523 | 10 | 11 | 4.8 | 4.8 | 0.00 | 0.00 | 0.00 | 54 | 1031.7 |
| 20260502022611 | 8 | 10 | 4.8 | 4.8 | 0.00 | 0.00 | 0.00 | 54 | 1031.7 |
| 20260502021558 | 8 | 355 | 3.2 | 4.8 | 0.00 | 0.00 | 0.00 | 54 | 1031.7 |
| 20260502020605 | 9 | 314 | 1.6 | 1.6 | 0.00 | 0.00 | 0.00 | 54 | 1031.7 |
| 20260502015531 | 9 | 314 | 1.6 | 1.6 | 0.00 | 0.00 | 0.00 | 54 | 1031.7 |
| 20260502014518 | 9 | 314 | 1.6 | 1.6 | 0.00 | 0.00 | 0.00 | 55 | 1031.7 |
| 20260502013606 | 9 | 314 | 1.6 | 1.6 | 0.00 | 0.00 | 0.00 | 55 | 1032.1 |
| 20260502012552 | 9 | 314 | 1.6 | 1.6 | 0.00 | 0.00 | 0.00 | 55 | 1032.7 |
| 20260502011539 | 9 | 314 | 1.6 | 1.6 | 0.00 | 0.00 | 0.00 | 55 | 1032.7 |
| 20260502010526 | 9 | 318 | 1.6 | 1.6 | 0.00 | 0.00 | 0.00 | 54 | 1032.7 |
| 20260502005634 | 9 | 325 | 1.6 | 1.6 | 0.00 | 0.00 | 0.00 | 55 | 1032.5 |
| 20260502004559 | 10 | 325 | 1.6 | 1.6 | 0.00 | 0.00 | 0.00 | 55 | 1031.7 |
| 20260502003547 | 10 | 327 | 3.2 | 3.2 | 0.00 | 0.00 | 0.00 | 54 | 1031.7 |
| 20260502002533 | 9 | 327 | 3.2 | 3.2 | 0.00 | 0.00 | 0.00 | 53 | 1031.7 |
| 20260502001520 | 9 | 327 | 3.2 | 3.2 | 0.00 | 0.00 | 0.00 | 54 | 1030.7 |
| 20260502000626 | 10 | 315 | 1.6 | 1.6 | 0.00 | 0.00 | 0.00 | 47 | 1032.7 |
| 20260501235552 | 10 | 315 | 1.6 | 1.6 | 0.00 | 0.00 | 0.00 | 51 | 1032.7 |
| 20260501234539 | 10 | 305 | 3.2 | 3.2 | 0.00 | 0.00 | 0.00 | 49 | 1031.7 |
| 20260501233526 | 13 | 305 | 3.2 | 3.2 | 0.00 | 0.00 | 0.00 | 45 | 1030.7 |
| 20260501232614 | 13 | 305 | 3.2 | 3.2 | 0.00 | 0.00 | 0.00 | 45 | 1030.7 |